Flag for Benin Weather past 2 weeks in Porto Novo, Benin

Now
75 °F

Passing clouds.


Feels Like: 74 °F
Forecast: 75 / 85 °F
Wind: 10 mph from Southwest

Location: Cotonou Airport

Current Time: Aug 2, 2015 at 1:28:54 AM

Latest Report: Aug 2, 2015 at 12:00 AM


Visibility: N/A

Pressure: 29.92 "Hg

Humidity: 94%

Dew point: 73 °F

Location of Porto NovoLocation

Historic Weather in Porto Novo — Graph

°F

Porto Novo temperature yesterday

Maximum temperature yesterday: 82 °F (at 2:00 PM)
Minimum temperature yesterday: 75 °F (at 12:00 AM)
Average temperature yesterday: 77 °F

Past Weeks' High & Low Weather Summary

 TemperatureHumidityPressure
High84 °F (Jul 18, 12:00 PM)94% (Jul 18, 4:00 AM)30.01 "Hg (Jul 18, 4:00 AM)
Low75 °F (Jul 21, 1:00 AM)74% (Jul 22, 2:00 PM)29.83 "Hg (Jul 19, 5:00 PM)
Average78 °F87%29.93 "Hg
* Reported Midnight between Jul 17 and Jul 18 — Midnight between Aug 1 and Aug 2, Porto Novo, Weather by CustomWeather, © 2015

Note: Actual official high and low records may vary slightly from our data, if they occured in-between our weather recording intervals... More about our weather records

Advertising

Porto Novo weather history for previous 24 hours

 ConditionsComfort  
Time TempWeatherWind HumidityBarometerVisibility
12:00 AM
Sun, Aug 2
75 °FPassing clouds.10 mph94%29.92 "HgN/A
11:00 PM
Sat, Aug 1
75 °FPassing clouds.9 mph94%29.92 "HgN/A
10:00 PM75 °FPassing clouds.9 mph94%29.92 "HgN/A
9:00 PM75 °FPassing clouds.12 mph94%29.89 "HgN/A
8:00 PM75 °FPassing clouds.12 mph94%29.86 "HgN/A
7:00 PM77 °FPassing clouds.13 mph89%29.83 "HgN/A
6:00 PM79 °FScattered clouds.16 mph84%29.83 "HgN/A
5:00 PM81 °FPassing clouds.16 mph79%29.86 "HgN/A
4:00 PM81 °FScattered clouds.17 mph84%29.86 "HgN/A
3:00 PM81 °FScattered clouds.17 mph79%29.89 "HgN/A
2:00 PM82 °FScattered clouds.17 mph79%29.92 "HgN/A
1:00 PM81 °FScattered clouds.17 mph84%29.95 "HgN/A
12:00 PM81 °FPartly sunny.16 mph79%29.98 "HgN/A
11:00 AM81 °FPartly sunny.15 mph79%29.98 "HgN/A
10:00 AM79 °FScattered clouds.15 mph84%29.98 "HgN/A
9:00 AM77 °FScattered clouds.13 mph89%29.95 "Hg5 mi
8:00 AM75 °FPartly sunny.12 mph94%29.92 "Hg5 mi
7:00 AM75 °FPartly sunny.12 mph94%29.92 "Hg5 mi
6:00 AM75 °FPassing clouds.10 mph94%29.89 "Hg5 mi
5:00 AM75 °FPassing clouds.12 mph94%29.89 "Hg5 mi
4:00 AM75 °FPassing clouds.10 mph94%29.89 "Hg5 mi
3:00 AM75 °FPassing clouds.10 mph94%29.89 "Hg5 mi
2:00 AM75 °FPassing clouds.14 mph89%29.89 "Hg5 mi
1:00 AM75 °FPassing clouds.12 mph94%29.92 "Hg5 mi
Weather by CustomWeather, © 2015

See weather overviewHow to use our weather pages